Location: Powder Track
(41.8531°N, 72.3584°W)
Time: 22:00:42
(UTC+00:00)

Vanguard 2 Rocket - Pass Details

Date: 08 August 2021
Orbit: 555 x 3324 km, 32.9° (Epoch: 18 September)

Event Time Altitude Azimuth Distance (km) Brightness Sun altitude
Rises 11:51:54 0° 254° (WSW) 3,405 9.3 21.1°
Reaches altitude 10° 11:55:03 10° 242° (WSW) 2,182 8.4 21.7°
Maximum altitude 11:58:58 26° 186° (S) 1,190 7.6 22.4°
Drops below altitude 10° 12:02:18 10° 127° (SE) 1,829 9.4 23.0°
Sets 12:04:42 0° 114° (ESE) 2,733 10.5 23.4°
